This is the latest recevied weather packets stored in our database for station/object IZ1MEU-13. If no packets are shown the sender has not sent any weather packets the latest 10 day(s).
| Time | Temp. | Humidity | Pressure | Rain* | Wind** | Luminosity | Snow |
|---|---|---|---|---|---|---|---|
| 1777989320 | 12.78° C | 59% | 1015.1 hPa | - | - | - | - |
| 1777988116 | 13.33° C | 59% | 1015.2 hPa | - | - | - | - |
| 1777986913 | 13.33° C | 59% | 1015.4 hPa | - | - | - | - |
| 1777985709 | 12.78° C | 60% | 1015.3 hPa | - | - | - | - |
| 1777984505 | 12.78° C | 60% | 1015.5 hPa | - | - | - | - |
| 1777983301 | 12.22° C | 59% | 1015.5 hPa | - | - | - | - |
| 1777982097 | 13.33° C | 57% | 1015.6 hPa | - | - | - | - |
| 1777980894 | 13.33° C | 58% | 1015.5 hPa | - | - | - | - |
| 1777979690 | 13.33° C | 58% | 1015.7 hPa | - | - | - | - |
| 1777978486 | 13.33° C | 59% | 1015.8 hPa | - | - | - | - |
| 1777977282 | 11.67° C | 61% | 1015.8 hPa | - | - | - | - |
| 1777976079 | 11.67° C | 61% | 1015.9 hPa | - | - | - | - |
| 1777974875 | 11.11° C | 61% | 1016 hPa | - | - | - | - |
| 1777973671 | 11.11° C | 61% | 1016 hPa | - | - | - | - |
| 1777972467 | 11.11° C | 60% | 1015.7 hPa | - | - | - | - |
| 1777971264 | 10.56° C | 61% | 1015.7 hPa | - | - | - | - |
| 1777970055 | 10.56° C | 61% | 1015.6 hPa | - | - | - | - |
| 1777968851 | 10.56° C | 62% | 1015.7 hPa | - | - | - | - |
| 1777967646 | 10° C | 62% | 1015.7 hPa | - | - | - | - |
| 1777966442 | 10° C | 63% | 1015.5 hPa | - | - | - | - |
| 1777965238 | 10° C | 63% | 1015.5 hPa | - | - | - | - |
| 1777964034 | 10° C | 64% | 1015.4 hPa | - | - | - | - |
| 1777962829 | 10° C | 64% | 1015.4 hPa | - | - | - | - |
| 1777961625 | 10° C | 63% | 1015.3 hPa | - | - | - | - |
| 1777960421 | 9.44° C | 64% | 1015.3 hPa | - | - | - | - |
* Rain since midnight (hover to see other rain measurements)
** Current wind speed in m/s (hover to see current wind gust speed)